Погода в Аксе

Погода в Аксе : погода сейчас, прогноз погоды и архив. Всё, что Вы хотите узнать о погоде в Аксе!

Хотите узнать прогноз погоды в Аксе? Тогда Вам сюда: Погода в Аксе

Поиск расширенной информации на нашем сайте:

Другие новости

Новости СМИ2

Главная страница сайта

Новости сайта

03.07.2017

Напоминаем, что на нашем специализированном сайте Метеоцентр.Азия вы можете получить высокодетализированные автоматические прогнозы погоды по пунктам России, СНГ и мира в авиационном формате (включающие направление и скорость ветра, видимость, явления погоды, количество и форму облачности, нижнюю и верхнюю границу облачности).

Рекомендуем: очень хочется рисовать в Manga Studio.

Погода в Аксе - сегодня

Время (UTC), дата Ветер
(°,м/с) 
Видим.   Явления Облачность Т
(°С)
Тd
(°С)
f(%) Тe
(°С)
Pmin
(гПа)
dP
(гПа)
Po
(мм)
O2
(г/м3)
Тmin Tmax R s Состояние
почвы
06 20.02.18 310 (СЗ) 5{11}  20000 м    6/6 1000 м 
[Sc]
-9.5 -19.7 43 -14  1025.4  -2  700  294           
12 20.02.18 220 (ЮЗ) 2{12}  н/о    4/0 средняя, верхняя 
[Ac lent|Ci fib]
-15.1 -21.4 59 -17  1026.6  -0.2  700  300    -8.4       
15 20.02.18 200 (Ю) н/о    4/0 верхняя 
[Ci fib]
-14.1 -20.1 60 -18  1024.5  -1.6  698  298           
18 20.02.18 150 (ЮВ) н/о    10/0 средняя 
[Ac As]
-11.5 -19.3 52 -11  1022.1  -1.3  697  295           
21 20.02.18 250 (З) н/о    10/0 средняя 
[Ac As]
-14.1 -20.4 59 -16  1021.4  -1.5  696  297           
00 21.02.18 210 (ЮЗ) 20000 м    5/0 средняя, верхняя 
[Ac As|Ci sp]
-19.1 -23.4 69 -22  1022.3  -0.9  696  303  -19.7      равномерный
сухой снег
100% 
09 21.02.18 290 (З) 5{12}  20000 м    3/0 средняя 
[Ac As]
-10.6 -21 42 -15  1018.1  0.5  695  293           
12 21.02.18 120 (ЮВ) н/о    ясно 
-16.7 -23.2 57 -17  1021.1  0.6  695  300    -9       
15 21.02.18 230 (ЮЗ) н/о    ясно 
-22.2 -24.7 80 -23  1023.8  0.5  696  307           
18 21.02.18 190 (Ю) н/о    ясно 
-24.6 -27.4 78 -28  1024.6  -0.2  696  310           
21 21.02.18 180 (Ю) н/о    ясно 
-26.6 -29.5 76 -27  1024.8  -0.5  695  312           
00 22.02.18 210 (ЮЗ) 20000 м    4/0 верхняя 
[Ci sp]
-30.1 -33.6 71 -31  1026.5  0.2  695  317  -32      равномерный
сухой снег
100% 
03 22.02.18 тихо ()   20000 м    6/0 верхняя 
[Ci sp]
-17.8 -22.9 64 -18  1021  -0.5  695  301           
06 22.02.18 тихо ()   20000 м    9/8 1000 м верхняя 
[Cu Sc|Ci fib]
-11.5 -21.5 43 -12  1016.7  -1.7  694  293           
09 22.02.18 030 (СВ) 10 км    10/8 1000 м кучево-дожд., верхняя 
[Cb calv|Ci fib]
-12.1 -18 61 -15  1017.6  0.6  694  294           
15 22.02.18 120 (ЮВ) н/о    ясно 
-24.1 -27.2 75 -25  1026  1.7  697  310           
18 22.02.18 200 (Ю) н/о    ясно 
-29 -32.2 74 -30  1030.1  1.8  698  317           
21 22.02.18 200 (Ю) н/о    ясно 
-31.1 -34.6 71 -32  1033.1  1.8  700  320           
03 23.02.18 тихо ()   20000 м    ясно 
-17.7 -23.5 60 -18  1031.8  1.3  702  304           
06 23.02.18 250 (З) 20000 м    ясно 
-11.3 -21.6 42 -15  1028.6  -0.6  702  296           
09 23.02.18 180 (Ю) 20000 м    ясно 
-10 -23.2 33 -12  1028.5  0.3  702  295           
15 23.02.18 220 (ЮЗ) н/о    3/0 верхняя 
[Ci fib]
-26.8 -29.6 77 -27  1037.4  0.6  704  316           
18 23.02.18 220 (ЮЗ) н/о    ясно 
-30.4 -33.8 72 -31  1038.5  -0.4  703  321           
21 23.02.18 тихо ()   н/о    ясно 
-31.4 -35.2 69 -31  1038.2  -0.7  703  322           
00 24.02.18 190 (Ю) 20000 м    3/0 средняя 
[Ac lent]
-32.7 -36.6 68 -34  1038.7  703  324  -32.7      равномерный
сухой снег
100% 
Время (UTC), дата Ветер
(°,м/с) 
Видим.   Явления Облачность Т
(°С)
Тd
(°С)
f(%) Тe
(°С)
Pmin
(гПа)
dP
(гПа)
Po
(мм)
O2
(г/м3)
Тmin Tmax R s Состояние
почвы

Для получения пояснительной информации подведите курсор к названию столбца.

ПОГОДА в Аксе - архив

Всё, что Вы хотите узнать о погоде в Аксе - удобно и подробно!

Выберите нужную дату (начиная с 1 января 2015* года) и нажмите кнопку "Найти".
Будут отображены архивные сводки погоды по пункту Акса, начиная с указанной даты.


Отображать данные в формате CSV (для использования в таблицах Excel)


Внимание! Наш архив погоды предназначен исключительно для личного некоммерческого использования в познавательных целях. Если Вам необходимы официальные справки о состоянии погоды (для производственных, юридических, коммерческих и т.п. целей), обращайтесь в органы Росгидромета.

*Примечание: данная дата относится к архиву по метеостанциям СССР (Россия, СНГ, Балтия).
Архив по метеостанциям Зарубежной Европы и Азии (кроме Китая) хранится 10 дней, по другим регионам земного шара (Китай, Африка, Америка, Австралия, Океания) - 1 день.

Акса - район местоположения метеостанции


Название, широта, долгота, высота метеостанции:
Акса 50.3°ш. 113.3°д. 732 м над ур. моря [Российская Федерация]

Дополнительная информация

В oтличие oт бoльшинства пoгoдных сайтoв мы публикуем пoдрoбную метеoинфoрмацию в детальнoм прoфессиoнальнoм фoрмате.

Характеристики температуры и влажнoсти вoздуха измеряются на высoте 2 м в тени вдали oт зданий и деревьев.
Скoрoсть ветра измеряется на высoте 10 м (на урoвне рoста челoвека скoрoсть ветра ниже в 1.5-2 раза). Если метеoстанция нахoдится в гoрoде или в лесу, тo скoрoсть ветра занижена на 2-4 м/с пo сравнению с oткрытым местoм. Скoрoсть ветра над акватoриями крупных рек и oзёр, а также на вершинах хoлмoв на 2-5 м/с выше, чем в oбычных услoвиях.
Атмoсфернoе давление в разных тoчках местнoсти мoжет значительнo oтличаться oт давления на метеoстанции, в зависимoсти oт услoвий рельефа (при пoдъёме на 10 м давление пoнижается примернo на 1 мм рт.ст.).